Temp
61 61 61 61 61 61 61 62 62 61 62 62 62 61 61 61 60 60 53 61 63 64 66 65 68 69 70 69 73 73 66 63 66 66 73 78 79 82 83 79 77 78 78 79 78
60 60 60 60 60 60 61 61 61 61 61 61 61 61 61 60 57 54 64 65 65 66 63 61 64 68 66 68 71 70 64 66 71 73 74 77 79 81 78 75 72 74 77 79 78
59 60 60 60 60 60 60 60 61 61 61 61 61 61 61 60 52 56 65 66 66 67 65 66 67 68 64 68 68 68 64 68 71 74 76 76 77 79 78 74 77 75 75 77 78
59 59 59 60 60 59 59 60 60 61 60 60 60 61 61 57 43 64 69 69 69 70 63 62 64 63 62 61 69 63 68 71 73 73 75 75 77 76 77 77 80 81 80 79 77
59 59 59 59 59 59 59 59 59 60 59 59 60 60 58 48 50 68 68 68 69 64 59 62 61 64 61 64 65 65 68 70 75 74 73 76 75 76 76 78 80 79 78 78 79
58 58 58 58 59 59 59 59 59 59 59 59 60 60 52 42 66 68 66 65 64 62 60 63 65 68 65 65 65 69 69 71 72 73 72 74 74 76 76 79 77 77 77 78 79
57 57 58 58 58 58 58 58 58 58 59 60 60 58 50 50 67 68 65 63 64 63 58 65 69 67 67 62 69 67 64 67 69 71 72 73 71 72 79 78 76 77 78 79 81
57 57 57 57 57 58 58 57 57 58 59 60 61 55 45 65 68 64 66 63 66 66 66 69 69 68 67 69 66 64 65 59 68 70 72 72 65 75 78 76 75 76 77 78 79
56 56 56 56 56 57 57 56 57 58 59 59 54 51 46 65 58 63 65 59 63 65 67 71 67 65 64 61 57 59 55 58 62 71 70 70 66 74 76 77 76 79 80 81 80
57 56 56 56 56 56 55 56 57 57 57 58 57 46 55 54 61 62 64 64 60 60 61 62 61 59 60 58 48 52 54 58 59 64 68 66 66 73 74 75 75 78 80 81 82
56 56 56 56 56 55 54 52 50 45 50 49 50 51 57 61 63 59 62 62 62 57 52 57 53 50 56 60 62 61 58 56 62 65 66 65 67 70 72 72 74 76 75 78 80
55 55 56 55 55 55 53 43 49 50 43 53 53 55 61 61 50 56 65 57 55 49 54 51 49 58 58 61 59 58 56 56 61 66 67 63 65 68 71 74 76 76 76 78 79
55 55 55 54 54 53 49 50 58 54 42 50 54 51 55 56 50 54 61 60 54 50 52 50 54 58 58 57 56 56 56 56 58 63 64 63 60 63 68 72 75 76 78 78 79
54 54 54 54 48 52 48 56 58 54 35 44 46 51 55 56 49 63 64 62 56 50 53 52 57 55 55 54 58 52 61 60 59 58 53 63 52 59 65 66 70 74 75 78 79
54 54 54 54 48 46 53 55 55 48 25 45 47 62 57 52 57 56 66 64 53 53 54 50 52 53 52 56 59 55 61 61 61 59 57 56 54 62 63 65 68 71 74 77 79
54 54 53 53 52 53 56 56 50 35 27 35 47 47 48 52 57 59 60 65 64 56 56 55 62 59 58 60 61 64 59 59 58 57 48 56 55 58 61 65 69 74 76 75 77
54 54 52 52 46 53 55 49 35 29 49 34 38 48 50 49 53 54 53 54 51 45 46 52 54 59 62 56 62 61 55 46 44 45 45 55 53 60 65 67 72 74 73 73 76
52 52 51 52 54 55 50 40 31 42 41 43 41 44 44 52 52 53 52 50 55 56 50 46 42 55 61 59 55 57 56 49 37 40 46 52 50 59 69 67 68 69 71 72 74
51 53 55 53 56 54 44 37 36 39 41 40 44 40 42 52 52 52 52 52 56 58 49 48 47 61 62 63 63 56 52 60 50 49 49 53 56 61 64 65 67 68 68 69 72
49 48 53 55 56 48 42 36 39 45 45 42 35 45 45 49 49 50 50 56 55 59 59 55 45 58 61 64 62 60 64 50 53 41 39 48 50 56 59 63 67 68 69 68 70
50 50 58 58 53 46 35 36 39 48 47 41 38 42 49 50 51 50 50 57 60 60 61 58 54 52 59 57 56 57 55 56 56 54 44 43 50 62 63 63 63 66 68 68 69
49 44 57 55 44 43 37 39 43 46 49 44 43 45 48 52 50 52 51 56 64 62 55 60 56 48 54 61 67 64 59 58 49 47 51 50 53 61 62 62 62 64 67 67 70
45 46 55 53 34 35 42 43 45 43 45 43 42 47 50 50 48 53 56 62 63 61 58 60 52 45 49 56 60 59 59 61 57 54 49 46 53 59 61 60 62 62 65 66 67
46 38 45 45 45 38 37 39 40 49 47 46 45 49 49 49 53 50 55 57 62 64 60 61 51 52 47 53 57 53 56 59 59 49 52 53 57 56 58 58 59 60 62 65 65
41 37 41 34 40 39 41 41 38 37 46 49 45 45 43 45 49 49 51 55 58 58 58 60 52 53 53 54 56 57 58 57 57 59 53 59 57 61 59 58 58 60 62 62 59
39 37 42 39 42 41 40 38 37 38 40 42 41 44 45 44 46 46 50 52 54 58 57 55 49 53 50 55 57 54 56 59 59 57 57 57 56 63 62 61 59 59 59 56 58
46 48 40 41 42 39 38 38 38 40 45 47 43 42 46 47 50 55 55 54 56 55 54 56 52 51 47 52 56 50 55 58 57 58 60 57 58 59 57 56 55 55 57 54 54
MSLP
1019.09 1018.73 1018.47 1018.19 1017.92 1017.68 1017.39 1017.12 1016.90 1016.74 1016.44 1016.25 1016.05 1015.94 1015.80 1015.60 1015.36 1015.08 1014.29 1012.98 1012.81 1012.74 1012.68 1012.66 1012.23 1012.10 1011.82 1011.18 1010.63 1010.26 1009.33 1007.98 1007.48 1007.24 1006.59 1006.76 1006.35 1006.36 1006.65 1006.69 1007.28 1007.49 1007.77 1008.32 1009.46
1019.05 1018.67 1018.28 1017.99 1017.70 1017.44 1017.21 1017.00 1016.82 1016.61 1016.35 1016.08 1015.83 1015.69 1015.58 1015.47 1015.06 1013.79 1011.48 1012.09 1012.31 1012.61 1012.61 1012.34 1011.82 1011.62 1011.21 1010.53 1010.22 1009.38 1008.53 1007.93 1007.77 1007.31 1006.70 1006.53 1006.41 1006.40 1006.81 1007.30 1007.79 1008.06 1008.51 1008.89 1009.55
1019.03 1018.58 1018.11 1017.75 1017.37 1017.12 1016.85 1016.60 1016.35 1016.21 1016.11 1015.83 1015.62 1015.46 1015.29 1015.21 1014.33 1011.16 1010.21 1010.99 1011.80 1012.05 1012.36 1012.04 1011.65 1011.01 1010.57 1010.01 1009.42 1009.06 1008.07 1008.49 1007.94 1007.45 1006.99 1006.59 1006.51 1006.63 1006.59 1007.02 1007.34 1007.20 1007.80 1008.73 1009.29
1018.81 1018.42 1018.02 1017.58 1017.17 1016.79 1016.55 1016.29 1016.06 1015.81 1015.77 1015.63 1015.43 1015.25 1015.05 1015.04 1013.18 1010.34 1010.26 1010.58 1010.70 1010.71 1011.99 1011.57 1011.10 1010.38 1009.78 1009.08 1008.80 1008.82 1008.64 1008.22 1007.90 1007.63 1006.94 1006.69 1006.71 1006.61 1006.69 1006.93 1007.19 1007.48 1007.88 1008.35 1008.89
1018.64 1018.08 1017.68 1017.25 1016.85 1016.45 1016.11 1015.81 1015.62 1015.46 1015.29 1015.19 1015.07 1014.99 1014.85 1014.03 1011.33 1010.52 1010.44 1009.97 1009.78 1010.47 1010.94 1010.72 1010.17 1009.52 1008.79 1008.72 1008.88 1008.39 1008.15 1008.24 1007.73 1007.51 1007.06 1006.79 1006.73 1006.82 1006.86 1007.11 1007.42 1007.95 1008.49 1008.70 1008.90
1018.32 1017.74 1017.28 1016.88 1016.41 1016.02 1015.68 1015.31 1014.98 1014.73 1014.64 1014.54 1014.39 1014.28 1014.41 1012.74 1010.51 1010.35 1010.66 1010.31 1010.05 1010.25 1010.68 1010.44 1009.43 1009.24 1009.05 1008.38 1008.18 1008.02 1008.21 1007.95 1007.87 1007.68 1007.57 1006.78 1006.89 1007.18 1007.06 1007.22 1007.64 1008.12 1008.63 1009.13 1009.12
1018.23 1017.68 1017.14 1016.53 1016.02 1015.56 1015.17 1014.85 1014.54 1014.30 1014.07 1013.88 1013.91 1013.80 1012.78 1010.47 1010.08 1010.12 1010.43 1010.50 1010.54 1010.26 1010.06 1010.13 1009.47 1008.92 1008.46 1008.40 1008.41 1008.18 1008.18 1008.11 1007.96 1007.73 1007.48 1006.99 1007.19 1006.98 1007.03 1007.19 1007.70 1008.05 1008.38 1008.73 1008.80
1018.04 1017.51 1016.99 1016.41 1015.77 1015.31 1014.83 1014.42 1014.09 1013.82 1013.62 1013.58 1013.44 1013.40 1011.33 1009.63 1009.63 1009.68 1009.87 1010.15 1010.42 1010.25 1009.99 1009.86 1009.52 1008.93 1008.25 1008.16 1008.24 1007.97 1007.98 1007.49 1007.47 1007.69 1007.65 1007.75 1007.16 1007.08 1007.11 1007.28 1007.53 1007.95 1008.29 1008.64 1008.95
1017.82 1017.25 1016.67 1016.07 1015.56 1015.07 1014.55 1013.98 1013.38 1012.90 1012.75 1012.95 1013.19 1012.73 1010.24 1008.96 1008.94 1008.58 1009.18 1009.54 1009.65 1009.87 1009.69 1009.49 1009.30 1008.52 1008.47 1007.59 1007.90 1007.74 1006.57 1006.81 1007.40 1007.49 1007.58 1007.68 1007.12 1006.93 1007.07 1007.14 1007.38 1007.69 1007.97 1008.21 1008.58
1017.59 1016.95 1016.34 1015.72 1015.19 1014.59 1014.10 1013.48 1012.29 1011.89 1011.65 1012.18 1012.28 1012.11 1009.40 1008.04 1007.84 1007.88 1008.30 1008.96 1009.00 1009.44 1009.35 1009.25 1008.98 1008.24 1007.95 1006.95 1006.01 1006.16 1006.63 1007.12 1006.92 1007.39 1007.23 1007.37 1007.05 1006.78 1006.97 1006.85 1007.39 1007.36 1007.70 1007.94 1007.95
1017.15 1016.37 1015.74 1015.16 1014.48 1013.92 1013.70 1013.08 1012.06 1011.71 1011.06 1009.75 1009.27 1008.60 1007.51 1007.55 1007.65 1007.50 1008.21 1008.35 1008.57 1009.08 1008.32 1008.81 1008.35 1006.89 1006.64 1006.60 1006.51 1006.40 1006.89 1007.02 1007.34 1007.49 1007.23 1007.16 1007.22 1006.97 1007.25 1007.50 1007.68 1007.32 1007.61 1008.00 1007.95
1016.65 1015.80 1015.06 1014.45 1013.65 1013.29 1013.40 1012.84 1011.61 1011.41 1010.07 1008.76 1008.54 1008.05 1007.26 1007.38 1007.57 1007.61 1007.56 1007.22 1007.90 1008.05 1008.45 1008.77 1007.83 1007.73 1008.03 1007.63 1007.16 1007.08 1007.04 1007.18 1007.52 1007.45 1007.24 1007.43 1007.34 1007.45 1007.14 1007.22 1007.30 1007.33 1007.78 1007.96 1008.11
1016.04 1015.07 1014.16 1013.38 1012.74 1012.42 1011.89 1011.28 1010.90 1011.07 1010.05 1007.32 1006.83 1007.11 1007.12 1007.66 1007.46 1006.91 1007.01 1006.62 1007.06 1007.56 1007.87 1007.61 1007.79 1008.15 1007.80 1007.60 1007.23 1007.17 1006.69 1007.03 1007.06 1007.33 1007.59 1007.60 1007.69 1007.65 1007.59 1007.40 1007.40 1007.61 1007.67 1007.85 1007.66
1015.30 1014.17 1013.20 1012.63 1012.26 1011.56 1011.58 1011.27 1011.07 1011.45 1010.18 1006.77 1006.21 1005.76 1006.35 1007.06 1006.87 1006.26 1006.37 1005.97 1006.56 1007.01 1007.65 1007.77 1007.75 1007.75 1007.77 1007.62 1007.35 1007.04 1007.08 1007.06 1007.38 1007.24 1007.03 1007.56 1006.95 1007.40 1007.48 1007.57 1007.47 1007.40 1007.61 1007.64 1007.36
1014.53 1013.34 1012.22 1011.44 1011.50 1011.39 1011.33 1011.29 1011.23 1011.34 1009.28 1006.65 1005.84 1005.40 1005.66 1005.86 1004.91 1005.66 1005.51 1005.24 1005.54 1006.43 1007.04 1007.09 1007.14 1007.16 1007.06 1007.07 1007.54 1007.33 1007.29 1007.00 1007.26 1007.47 1007.67 1007.64 1007.41 1006.35 1007.21 1006.83 1006.85 1007.21 1007.37 1007.55 1007.56
1013.94 1012.57 1011.81 1011.31 1011.41 1011.20 1011.28 1011.19 1010.99 1010.51 1007.93 1006.66 1005.82 1005.48 1005.55 1005.27 1004.40 1004.95 1005.16 1005.49 1005.30 1005.95 1006.40 1006.59 1006.73 1006.96 1006.69 1007.35 1007.57 1007.27 1007.31 1007.45 1007.73 1007.66 1007.56 1007.22 1007.17 1006.12 1006.19 1006.25 1006.52 1006.58 1006.86 1007.35 1007.60
1013.52 1012.45 1011.94 1011.65 1011.82 1011.45 1011.28 1011.28 1010.59 1009.11 1006.78 1007.55 1006.48 1005.78 1004.98 1004.60 1004.20 1004.29 1004.80 1004.86 1004.53 1005.05 1005.77 1006.27 1006.55 1006.52 1006.51 1007.00 1007.24 1007.16 1007.05 1007.06 1007.56 1007.44 1007.05 1007.74 1007.33 1006.02 1006.20 1006.41 1006.39 1006.37 1006.90 1007.19 1007.33
1013.33 1012.50 1012.29 1011.98 1011.92 1011.64 1011.51 1010.97 1009.66 1008.19 1007.35 1007.19 1006.63 1006.14 1005.10 1004.06 1004.06 1004.33 1004.48 1004.46 1004.65 1004.46 1005.02 1005.21 1005.96 1005.79 1005.99 1005.88 1005.96 1006.56 1006.48 1005.95 1006.06 1006.56 1007.07 1008.05 1006.62 1006.17 1006.24 1006.76 1006.94 1007.07 1007.01 1007.22 1007.26
1013.36 1012.62 1012.01 1012.00 1011.64 1011.75 1011.45 1010.38 1009.76 1008.62 1007.99 1007.11 1006.26 1005.94 1004.98 1003.57 1003.56 1004.17 1004.22 1004.19 1004.26 1004.15 1004.03 1004.44 1004.69 1005.23 1005.38 1005.64 1005.85 1006.19 1006.38 1006.51 1006.56 1007.22 1006.89 1006.98 1006.95 1006.82 1006.81 1006.70 1006.83 1006.86 1006.98 1006.96 1007.17
1013.68 1013.36 1012.33 1012.12 1011.88 1011.44 1011.25 1010.84 1009.83 1009.22 1008.17 1007.79 1006.85 1005.45 1004.02 1003.43 1003.44 1003.76 1004.19 1004.13 1003.89 1003.77 1004.00 1003.92 1004.35 1004.82 1005.08 1005.53 1005.88 1005.53 1006.00 1006.48 1006.57 1006.42 1006.52 1006.78 1006.61 1005.90 1006.47 1006.53 1006.65 1006.46 1006.64 1006.84 1007.05
1013.55 1012.88 1012.43 1012.01 1011.80 1011.59 1011.73 1011.49 1010.77 1009.38 1008.72 1008.05 1007.35 1005.87 1004.16 1003.42 1003.13 1003.45 1003.81 1003.64 1003.60 1003.34 1003.84 1003.79 1003.70 1004.65 1004.88 1004.54 1004.72 1005.35 1005.64 1006.00 1006.25 1006.44 1006.17 1006.22 1006.09 1005.86 1006.03 1006.61 1006.88 1006.84 1006.67 1006.74 1006.96
1014.36 1013.32 1012.62 1012.14 1012.07 1012.44 1012.43 1012.02 1011.14 1009.56 1008.92 1008.62 1007.82 1006.34 1004.67 1003.53 1003.38 1003.12 1003.14 1002.73 1002.91 1003.37 1003.71 1003.83 1003.88 1004.16 1004.23 1004.62 1004.49 1004.73 1004.96 1005.34 1005.70 1006.30 1006.59 1006.48 1006.05 1006.36 1006.71 1007.11 1007.44 1007.31 1007.09 1007.24 1007.46
1015.60 1014.82 1013.31 1013.05 1013.81 1013.57 1013.05 1012.14 1011.33 1010.26 1009.39 1008.89 1007.98 1006.96 1005.59 1004.20 1003.75 1003.31 1002.97 1002.75 1003.00 1003.28 1003.34 1003.66 1004.05 1004.09 1004.73 1005.02 1004.97 1004.54 1004.81 1004.78 1005.46 1006.09 1005.96 1006.15 1006.05 1006.70 1007.13 1007.55 1007.81 1007.79 1007.71 1007.94 1008.36
1016.31 1015.74 1015.13 1014.88 1015.23 1014.77 1013.67 1012.85 1011.74 1010.89 1009.91 1009.22 1008.34 1007.13 1006.08 1005.04 1004.18 1003.83 1003.44 1003.41 1003.22 1003.21 1003.39 1003.48 1003.99 1003.70 1003.67 1003.65 1003.95 1004.22 1004.43 1004.56 1004.77 1005.27 1005.31 1005.49 1005.76 1006.62 1007.18 1007.78 1008.33 1008.49 1008.51 1008.64 1009.11
1017.81 1017.88 1017.63 1016.58 1015.41 1015.19 1014.34 1013.81 1012.70 1011.81 1011.03 1009.59 1008.74 1008.22 1007.55 1006.21 1005.12 1004.57 1004.31 1003.91 1003.95 1003.96 1003.94 1003.84 1004.01 1004.30 1004.31 1004.07 1003.91 1003.70 1003.68 1004.25 1004.47 1004.56 1005.12 1004.97 1005.63 1006.13 1007.45 1008.36 1008.93 1009.11 1009.38 1009.82 1010.37
1019.11 1019.18 1018.29 1017.37 1016.43 1015.42 1014.79 1014.06 1013.41 1012.62 1011.77 1010.41 1009.75 1009.09 1008.36 1007.46 1006.95 1005.95 1005.17 1004.61 1004.17 1004.28 1004.21 1004.47 1004.69 1004.66 1004.86 1004.50 1004.08 1003.89 1004.09 1004.34 1004.64 1005.04 1005.35 1005.57 1006.32 1007.08 1008.40 1009.37 1009.76 1010.10 1010.54 1011.42 1011.80
1019.63 1019.49 1019.18 1017.56 1016.57 1015.83 1015.39 1014.76 1013.88 1013.23 1011.96 1011.26 1010.64 1010.07 1008.83 1008.32 1007.62 1006.51 1006.00 1005.45 1004.92 1004.56 1004.54 1004.55 1004.75 1004.98 1005.19 1005.17 1004.58 1004.51 1004.41 1004.39 1004.77 1005.21 1005.51 1005.86 1006.66 1008.02 1009.44 1010.62 1011.37 1011.92 1012.07 1013.17 1013.73
Wind_Speed
14 14 12 11 12 11 12 11 12 13 13 13 12 11 12 12 9 10 17 13 10 18 4 7 4 9 4 4 4 4 8 13 17 11 9 5 7 3 3 3 2 2 1 8 18
19 18 16 14 13 12 12 11 12 13 15 14 13 10 10 12 12 20 25 18 23 11 7 10 10 13 6 6 7 10 13 13 6 5 6 5 6 7 4 7 2 8 12 15 17
18 18 18 16 16 14 12 12 11 13 15 15 13 12 11 9 10 10 5 17 19 18 12 9 7 16 14 8 12 9 16 7 6 5 3 4 6 2 6 7 7 11 19 17 16
19 18 19 18 17 16 15 14 14 11 13 15 15 13 9 2 9 3 0 13 14 17 16 10 11 19 14 15 15 12 9 11 4 3 4 2 1 4 4 1 3 12 15 17 19
17 18 18 18 19 16 14 15 14 14 10 13 14 14 7 9 14 13 20 19 7 20 21 15 18 19 20 16 13 16 14 9 7 1 2 1 3 3 6 6 12 15 10 14 14
19 19 17 18 18 16 16 15 14 13 12 10 13 13 8 20 8 9 2 5 8 18 19 13 14 14 17 17 18 14 8 12 5 7 0 2 3 4 6 11 14 15 13 12 13
20 21 21 20 19 19 16 17 15 16 16 13 15 10 13 22 6 5 3 2 4 14 17 11 8 17 12 11 7 8 16 8 9 5 5 2 3 6 8 13 15 15 13 12 12
21 21 22 22 21 20 21 19 18 20 18 16 14 10 12 8 12 22 19 15 9 13 12 11 4 9 6 7 10 10 13 16 16 12 4 9 22 9 9 11 14 14 11 11 12
22 21 22 24 23 22 21 20 23 23 20 15 7 7 12 1 13 20 17 9 14 14 8 9 3 9 5 18 15 11 15 22 13 16 8 11 8 10 8 10 10 12 14 13 11
24 24 22 23 24 22 19 23 24 17 6 6 6 7 10 8 6 5 14 15 13 14 7 9 6 11 8 17 19 24 15 17 18 11 17 13 6 9 11 9 10 8 7 8 9
27 26 25 22 23 20 16 9 4 4 7 11 12 6 9 8 3 4 15 19 13 12 9 12 10 20 26 21 10 18 18 10 13 6 12 13 11 6 11 8 10 8 6 7 7
28 27 26 24 24 20 12 5 12 5 8 20 17 23 6 5 2 10 17 11 20 16 11 10 15 14 12 13 9 14 19 14 11 10 11 10 14 5 9 12 12 12 10 10 8
29 28 27 25 22 14 9 10 5 9 5 9 18 19 10 9 5 8 17 14 20 17 12 15 11 10 14 12 11 10 18 21 12 9 3 10 9 8 7 7 8 9 7 7 10
30 30 28 23 13 3 5 7 7 3 5 4 5 6 16 4 8 9 16 12 6 17 11 8 9 19 15 13 10 9 9 17 19 12 11 8 12 9 11 12 11 12 9 10 9
33 35 29 18 3 2 6 4 4 5 5 6 5 8 15 13 12 11 20 5 12 14 5 6 16 20 21 21 11 5 6 13 16 15 9 10 9 13 6 17 17 13 13 13 12
34 34 21 4 1 4 6 7 2 3 2 7 2 9 13 10 5 16 15 12 7 13 6 5 10 14 12 16 16 6 6 8 6 6 12 13 14 13 15 13 10 11 12 12 14
35 28 7 4 3 8 5 1 2 3 7 6 4 8 15 10 9 22 19 13 8 12 12 5 10 7 10 20 17 14 14 7 8 8 6 8 9 9 8 9 11 12 7 9 14
33 16 4 5 5 3 2 2 3 9 8 1 2 5 9 13 19 20 19 13 3 8 11 8 7 13 15 20 12 17 17 6 7 9 9 5 10 7 9 3 3 7 8 8 12
18 5 6 6 2 0 3 3 6 8 9 8 6 9 6 10 13 20 20 14 8 7 6 6 5 15 19 13 15 19 13 5 5 2 7 6 3 4 4 7 5 6 7 11 14
4 5 8 5 3 1 2 7 8 12 11 5 3 1 12 14 14 15 17 14 6 11 2 5 9 13 17 14 5 15 15 9 2 8 6 6 4 6 12 11 7 6 6 7 11
2 3 9 11 2 2 4 4 6 14 11 6 5 4 5 10 20 17 18 13 15 10 6 2 3 10 13 10 13 13 13 5 3 2 7 4 3 5 7 3 5 8 8 5 11
4 4 8 9 7 4 5 11 8 10 6 6 4 6 4 6 14 9 18 5 20 8 6 1 5 12 17 2 15 12 15 9 9 8 0 2 2 2 4 2 5 9 7 4 10
3 3 4 6 6 6 9 10 10 12 10 4 5 8 6 2 7 5 12 3 14 14 10 7 3 11 10 7 6 13 8 8 7 3 8 5 2 3 3 1 4 6 2 7 11
3 6 5 5 3 7 8 10 17 13 9 10 4 6 6 7 7 3 8 5 11 15 6 7 3 4 7 8 8 9 12 13 13 5 6 8 6 7 7 3 2 1 4 8 12
6 3 2 6 8 13 12 13 13 13 8 11 4 14 11 6 3 5 4 3 6 3 4 1 4 4 5 3 3 7 17 18 17 14 9 11 10 7 8 5 4 7 10 12 13
4 5 5 6 8 11 11 9 12 12 5 10 9 14 11 5 6 6 4 3 2 3 4 0 4 2 5 4 4 4 9 11 10 8 6 4 4 5 12 10 10 12 15 14 14
2 2 3 6 9 7 8 11 12 17 7 9 8 8 5 5 10 8 3 3 2 2 4 4 6 3 5 1 7 6 8 10 6 5 5 7 7 16 14 14 11 11 17 15 15
Wind_Direction
335 328 320 309 315 318 321 323 330 330 321 318 311 319 316 312 297 271 263 237 206 244 245 338 165 193 202 215 191 151 212 208 203 188 196 166 197 140 47 174 69 341 128 128 139
343 338 333 322 313 311 319 327 327 322 323 321 311 315 315 313 290 271 252 237 231 241 220 216 199 174 194 189 184 201 212 207 190 189 162 164 202 159 186 151 138 116 116 132 146
332 331 331 328 319 313 315 313 312 323 317 317 318 318 316 321 290 259 291 215 229 226 229 208 209 184 203 187 182 187 216 189 211 181 180 149 163 185 172 203 210 188 149 149 152
336 330 328 324 319 314 313 311 307 303 308 310 310 304 306 279 266 130 345 323 287 198 199 195 195 189 188 195 184 195 203 192 169 159 139 146 72 154 212 42 225 164 151 153 162
332 327 324 322 320 313 307 307 306 299 293 300 297 291 290 231 242 281 306 306 213 166 187 192 185 189 196 190 178 210 181 186 203 90 101 237 74 178 130 115 132 141 160 168 168
328 324 322 317 313 312 310 307 302 295 283 285 289 279 253 253 279 260 272 44 164 172 184 202 196 193 194 185 195 184 185 184 187 202 64 145 72 265 128 141 141 155 167 175 175
334 334 329 323 318 316 308 299 295 287 285 276 277 265 245 239 233 166 272 336 201 185 182 204 191 195 165 164 171 174 198 175 192 175 194 132 209 218 132 154 152 166 170 176 182
329 327 326 323 320 315 312 311 308 299 288 283 272 264 256 254 249 249 253 274 227 199 197 200 207 201 203 160 162 172 201 202 187 183 185 197 202 200 152 149 164 168 177 188 200
329 325 321 317 315 315 314 306 298 289 278 265 249 228 264 250 228 243 223 218 177 196 191 195 241 194 153 167 176 188 197 205 182 202 165 203 188 205 166 158 162 166 169 175 185
328 326 319 316 314 310 307 309 295 286 244 201 235 220 239 239 204 189 174 189 163 176 149 175 187 185 179 185 184 188 193 196 197 183 203 187 188 185 173 173 197 187 191 188 196
326 322 320 315 311 305 312 323 290 199 207 201 193 215 291 224 159 160 168 163 145 168 157 180 185 188 191 196 205 202 196 188 198 184 183 193 186 206 169 177 181 195 191 219 235
319 316 315 311 301 303 300 242 242 339 266 232 238 224 239 56 325 152 178 140 165 162 143 159 201 185 155 179 162 179 191 194 179 160 189 175 185 205 194 191 193 190 194 212 224
319 316 311 305 302 297 230 220 252 1 272 270 221 221 217 201 248 178 187 147 163 163 172 180 177 163 177 178 144 183 194 192 165 161 100 153 189 200 222 244 213 204 223 227 224
325 321 318 318 293 269 280 283 282 252 282 237 184 234 185 187 220 200 198 140 150 160 154 173 159 172 177 184 173 141 189 180 193 178 190 217 206 213 193 204 226 220 222 229 243
331 330 326 316 264 232 290 352 5 184 274 82 140 133 154 177 128 189 201 209 143 155 183 134 164 184 184 189 184 141 170 158 183 197 193 189 228 193 204 221 214 217 218 221 225
335 331 342 12 134 284 275 305 238 260 257 355 279 138 150 208 190 146 191 234 139 154 199 99 174 165 177 173 182 172 128 88 109 149 201 201 222 209 211 213 213 225 221 215 223
334 331 359 323 18 344 188 258 186 287 311 353 8 159 153 180 151 152 182 182 162 155 186 155 153 164 170 163 178 187 178 152 177 194 194 178 200 237 201 205 225 223 227 215 213
331 332 357 32 341 52 116 263 357 347 8 161 317 172 173 173 150 161 172 177 177 150 157 162 162 164 173 168 177 180 184 180 178 181 163 160 220 207 224 177 233 255 253 233 210
335 335 26 5 47 47 296 349 351 351 333 338 86 136 214 135 148 162 178 175 182 171 152 149 131 177 169 168 160 186 199 141 106 86 172 185 183 228 210 220 228 224 225 222 210
343 321 32 337 327 286 3 340 343 339 350 26 37 256 154 137 143 167 177 199 207 211 253 170 126 183 157 166 160 180 181 193 198 173 176 169 232 236 198 211 243 264 252 217 207
14 27 353 343 290 16 39 322 298 315 18 359 338 321 117 143 154 161 179 173 213 199 206 127 151 149 160 188 173 156 173 187 176 285 191 197 197 214 194 173 272 295 304 240 194
344 56 339 329 40 23 355 324 290 310 16 11 303 289 302 74 157 149 184 165 203 165 198 275 123 160 172 123 179 173 181 172 188 190 283 359 242 142 158 279 287 291 298 228 185
11 324 341 349 38 6 325 346 351 342 349 42 318 349 339 29 145 145 184 199 167 185 180 185 136 143 146 147 155 196 179 172 124 137 208 205 218 142 167 245 309 301 245 169 161
358 11 344 20 23 347 341 358 358 349 339 344 307 326 355 23 29 123 175 38 181 192 183 135 111 133 156 152 148 177 183 192 190 183 170 228 231 198 195 168 29 2 163 160 158
13 42 14 338 351 343 3 360 349 358 339 342 11 20 10 18 26 55 31 100 93 122 102 202 117 85 48 113 163 161 183 186 195 214 201 250 219 212 166 114 82 117 136 137 130
33 345 345 300 317 338 4 349 336 341 300 344 349 340 338 19 16 12 341 40 89 104 121 115 106 110 69 104 142 121 161 180 190 199 236 257 152 138 121 107 101 107 108 105 102
345 283 283 300 336 351 354 340 324 336 305 321 312 316 317 5 314 293 327 43 53 152 132 150 139 126 134 132 145 122 173 172 152 170 202 180 137 140 119 96 85 104 105 102 96